Location: Zilina
(0.0000°N, 18.7333°E)
Time: 16:20:33
(UTC+02:00)

MOS 1 - Pass Details

Date: 19 February 2019
Orbit: 878 x 892 km, 99.2° (Epoch: 19 October)

Event Time Altitude Azimuth Distance (km) Brightness Sun altitude
Rises 18:58:07 0° 158° (SSE) 3,481 7.3 -14.5°
Maximum altitude 19:06:04 54° 77° (ENE) 1,053 4.3 -16.5°
Drops below altitude 10° 19:11:31 10° 0° (N) 2,522 6.5 -17.8°
Sets 19:13:56 0° 356° (N) 3,457 7.3 -18.4°
